Location: Aalen
(48.8330°N, 10.1000°E)
Time: 13:31:44
(UTC+02:00)

AO-85 - Visible Passes

Search period start: 02 April 2023 00:00
Search period end: 12 April 2023 00:00
Orbit: 516 x 753 km, 64.8° (Epoch: 04 January)

Date Brightness Start Highest point End Pass type
(mag) Time Alt. Az. Time Alt. Az. Time Alt. Az.
07 Apr ? 05:56:57 10° SE 05:58:38 12° ESE 06:00:20 10° E visible
10 Apr ? 05:20:29 10° SSE 05:23:02 16° ESE 05:25:30 10° ENE visible
11 Apr ? 05:40:30 10° S 05:44:17 33° ESE 05:47:55 10° NE visible
